This demonstration page uses our WeatherBlox Daily Observations layout. Learn more.

Left ArrowRight Arrow

34.74481, -87.66753

Hourly Observations for March 22, 2022

Temp ( °F °C ) Dew Point ( °F °C ) Humidity (%) Winds ( mph kmh ) Pressure ( in mb ) Visibility ( mi km ) Precip ( " mm )
12:53 am 00:53 Partly Cloudy 66 18.9 35 1.7 32 32 SSE 13 20 29.98 1015 10 16 0.00 0.00
1:53 am 01:53 Clear 64 17.8 36 2.2 35 35 SSE 14 22 29.97 1015 10 16 0.00 0.00
2:53 am 02:53 Clear 63 17.2 36 2.2 37 37 SSE 13 20 29.96 1015 10 16 0.00 0.00
3:53 am 03:53 Clear 61 16.1 38 3.3 43 43 SSE 13 20 29.93 1013 10 16 0.00 0.00
4:53 am 04:53 Clear 59 15 38 3.3 46 46 SE 10 17 29.92 1013 10 16 0.00 0.00
5:53 am 05:53 Clear 58 14.4 38 3.3 48 48 SE 8 13 29.94 1014 10 16 0.00 0.00
6:53 am 06:53 Cloudy 61 16.1 38 3.3 43 43 S 7 11 29.96 1014 10 16 0.00 0.00
7:27 am 07:27 Cloudy 62 16.7 39 3.9 43 43 SSE 9 15 29.96 1015 10 16 0.00 0.00
7:53 am 07:53 Cloudy 62 16.7 41 5 46 46 SSE 16 26 29.96 1015 10 16 0.00 0.00
8:53 am 08:53 Cloudy 63 17.2 47 8.3 56 56 SSE 14 22 29.94 1014 10 16 0.00 0.00
9:53 am 09:53 Mostly Cloudy 64 17.8 51 10.6 63 63 SSE 15 24 29.91 1013 10 16 0.00 0.00
10:53 am 10:53 Sunny 67 19.4 53 11.7 61 61 SE 16 26 29.88 1012 10 16 0.00 0.00
11:53 am 11:53 Partly Cloudy 71 21.7 56 13.3 59 59 SSE 17 28 29.83 1010 10 16 0.00 0.00
12:53 pm 12:53 Cloudy 75 23.9 58 14.4 55 55 SSE 23 37 29.79 1009 10 16 0.00 0.00
1:53 pm 13:53 Mostly Cloudy 76 24.4 59 15 56 56 SSE 24 39 29.72 1007 10 16 0.00 0.00
2:53 pm 14:53 Partly Cloudy 74 23.3 58 14.4 57 57 SSE 18 30 29.69 1005 10 16 0.00 0.00
3:53 pm 15:53 Mostly Cloudy 74 23.3 59 15 60 60 SSE 22 35 29.67 1005 10 16 0.00 0.00
4:16 pm 16:16 Mostly Cloudy with Nearby Thunderstorms 74 23.3 59 15 60 60 SSE 16 26 29.65 1004 10 16 0.00 0.00
4:30 pm 16:30 Cloudy with Thunderstorms 72 22.2 60 15.6 66 66 SSE 18 30 29.66 1005 9 14 0.00 0.00
4:45 pm 16:45 Cloudy with Nearby Thunderstorms 71 21.7 61 16.1 71 71 S 15 24 29.67 1005 4 6 0.03 0.76
4:53 pm 16:53 Cloudy with Nearby Thunderstorms 70 21.1 62 16.7 76 76 SSE 18 30 29.67 1005 3 5 0.06 1.52
5:00 pm 17:00 Cloudy with Nearby Thunderstorms 69 20.6 62 16.7 78 78 S 12 19 29.69 1005 2 3 0.03 0.76
5:03 pm 17:03 Cloudy with Thunderstorms 69 20.6 62 16.7 78 78 SSW 10 17 29.72 1006 2 2 0.10 2.54
5:08 pm 17:08 Cloudy with Strong Thunderstorms 66 18.9 62 16.7 87 87 W 26 43 29.73 1007 0 0 0.51 12.95
5:21 pm 17:21 Cloudy with Strong Thunderstorms 63 17.2 61 16.1 93 93 W 10 17 29.73 1007 1 2 0.70 17.78
5:24 pm 17:24 Cloudy with Nearby Thunderstorms 63 17.2 61 16.1 93 93 WSW 6 9 29.73 1007 2 3 0.72 18.29
5:45 pm 17:45 Cloudy with Rain 63 17.2 61 16.1 93 93 S 7 11 29.74 1007 3 5 0.79 20.07
5:50 pm 17:50 Cloudy with Nearby Thunderstorms 63 17 61 16 94 94 S 6 9 29.74 1007 3 4 0.81 20.57
5:53 pm 17:53 Cloudy with Nearby Thunderstorms 63 17.2 61 16.1 93 93 S 6 9 29.74 1007 3 4 0.82 20.83
6:07 pm 18:07 Cloudy with Rain 62 16.7 61 16.1 96 96 SSE 7 11 29.75 1008 2 3 0.07 1.78
6:18 pm 18:18 Cloudy with Heavy Rain 62 16.7 60 15.6 93 93 SE 7 11 29.74 1007 2 3 0.14 3.56
6:29 pm 18:29 Cloudy with Heavy Rain 62 16.7 60 15.6 93 93 SE 9 15 29.75 1008 2 3 0.20 5.08
6:53 pm 18:53 Cloudy with Rain 62 16.7 60 15.6 93 93 SE 9 15 29.73 1007 4 6 0.31 7.87
7:53 pm 19:53 Cloudy with Heavy Rain 62 16.7 60 15.6 93 93 SE 12 19 29.73 1007 3 4 0.28 7.11
8:00 pm 20:00 Cloudy with Heavy Rain 62 16.7 60 15.6 93 93 SE 8 13 29.74 1007 3 5 0.03 0.76
8:41 pm 20:41 Cloudy with Light Rain 62 16.7 60 15.6 93 93 ESE 13 20 29.71 1006 7 11 0.19 4.83
8:53 pm 20:53 Cloudy with Heavy Rain 62 16.7 60 15.6 93 93 SE 13 20 29.72 1006 4 6 0.23 5.84
9:02 pm 21:02 Cloudy with Heavy Rain 62 16.7 60 15.6 93 93 SE 10 17 29.72 1007 2 3 0.08 2.03
9:13 pm 21:13 Cloudy with Heavy Rain 62 16.7 60 15.6 93 93 SE 10 17 29.72 1007 3 5 0.14 3.56
9:19 pm 21:19 Cloudy with Heavy Rain 62 16.7 60 15.6 93 93 SE 8 13 29.72 1007 2 3 0.17 4.32
9:23 pm 21:23 Cloudy with Light Rain 62 16.7 60 15.6 93 93 SE 7 11 29.71 1006 3 5 0.18 4.57
9:37 pm 21:37 Cloudy with Light Rain 62 16.7 60 15.6 93 93 SE 8 13 29.71 1006 7 11 0.20 5.08
9:53 pm 21:53 Cloudy with Heavy Rain 62 16.7 60 15.6 93 93 SSE 8 13 29.73 1007 3 5 0.27 6.86
10:16 pm 22:16 Cloudy with Light Rain 62 16.7 60 15.6 93 93 SE 10 17 29.70 1006 6 10 0.06 1.52
10:53 pm 22:53 Cloudy 62 16.7 60 15.6 93 93 SE 9 15 29.67 1005 10 16 0.12 3.05
11:53 pm 23:53 Partly Cloudy 62 16.7 60 15.6 93 93 SSE 7 11 29.68 1005 10 16 0.00 0.00

Powered by AerisWeather